カタログに戻る

FENGYUN 1C DEB

運用中PO
NORAD 37079·DEBRIS·🇨🇳 China

打ち上げ May 10, 1999 から Taiyuan Satellite Launch Center

Loading…

次のパス (今後24時間)

TLE

最新Source: Space-Track

元期: Sep 14, 2026, 05:36 UTC

1 37079U 99025EFP 26257.23393587  .00009666  00000-0  16635-2 0  9993
2 37079  98.8680  58.3460 0009765  13.1884 346.9572 14.68783991686490

AllMySatでFENGYUN 1C DEBをリアルタイム追跡

Download on the App Store